KB7YYZ Weather Reports


time (UTC)temp
C
wind
direction
speed
KPH
gust
KPH
rain 1hr
cm
rain 24hr
cm
rain mn
cm
humidity
%
barometer
mb
20260506044046 21 248 0.0 0.0 0.00 0.64 0.43 38 1007.7
20260506043024 21 292 0.0 0.0 0.00 0.64 0.43 38 1007.6
20260506042024 21 283 1.6 1.6 0.00 0.64 0.43 38 1007.5
20260506041026 21 284 1.6 1.6 0.00 0.64 0.43 40 1007.3
20260506040025 21 289 1.6 1.6 0.00 0.71 0.43 39 1007.1
20260506035020 22 272 3.2 3.2 0.00 0.71 0.43 39 1006.9
20260506034024 22 272 1.6 1.6 0.00 0.71 0.43 39 1006.8
20260506033025 22 250 1.6 3.2 0.00 0.71 0.43 38 1006.6
20260506032028 22 242 1.6 1.6 0.00 0.71 0.43 36 1006.3
20260506031024 22 241 1.6 1.6 0.00 0.71 0.43 36 1006.1
20260506030026 22 245 1.6 1.6 0.00 0.71 0.43 35 1006.1
20260506025044 22 242 1.6 1.6 0.00 0.71 0.43 35 1006.0
20260506024024 22 251 1.6 1.6 0.00 0.71 0.43 34 1005.9
20260506023024 23 258 1.6 1.6 0.00 0.71 0.43 34 1005.7
20260506022046 23 262 1.6 1.6 0.00 0.71 0.43 35 1005.6
20260506021024 23 259 3.2 3.2 0.00 0.71 0.43 32 1005.4
20260506020024 23 254 1.6 1.6 0.00 0.76 0.43 32 1005.1
20260506015024 23 272 3.2 3.2 0.00 0.76 0.43 31 1005.0
20260506014020 23 254 3.2 4.8 0.00 0.76 0.43 31 1005.0
20260506013024 23 235 4.8 6.4 0.00 0.76 0.43 31 1004.9
20260506012020 23 257 3.2 3.2 0.00 0.76 0.43 31 1004.8
20260506011026 23 273 3.2 4.8 0.00 0.76 0.43 31 1004.6
20260506010024 24 259 4.8 4.8 0.00 0.76 0.43 31 1004.5
20260506005024 24 275 6.4 8.0 0.00 0.76 0.43 30 1004.4
20260506004043 24 228 6.4 260.7 0.00 0.76 0.43 30 1004.3
20260506003043 24 264 4.8 6.4 0.00 0.76 0.43 30 1004.3
20260506002024 25 234 6.4 6.4 0.00 0.76 0.43 30 1004.2
20260506001022 25 231 4.8 6.4 0.00 0.76 0.43 31 1004.1
20260506000023 25 241 4.8 4.8 0.00 0.76 0.43 31 1004.0
20260505235025 24 243 4.8 4.8 0.00 0.76 0.43 31 1004.0
20260505234023 24 274 6.4 6.4 0.00 0.76 0.43 31 1003.8
20260505233143 24 230 6.4 6.4 0.00 0.76 0.43 31 1003.8
20260505232026 24 230 1.6 1.6 0.00 0.76 0.43 32 1003.9
20260505231023 24 228 4.8 4.8 0.00 0.76 0.43 32 1004.0
20260505230025 24 226 4.8 4.8 0.00 0.76 0.43 32 1004.1
20260505225019 25 227 3.2 4.8 0.00 0.76 0.43 33 1004.1
20260505224022 24 320 3.2 4.8 0.00 0.76 0.43 33 1004.2
20260505223044 25 229 4.8 4.8 0.00 0.76 0.43 33 1004.3
20260505222023 24 239 6.4 6.4 0.00 0.76 0.43 33 1004.4
20260505221023 25 193 3.2 3.2 0.00 0.76 0.43 35 1004.5
20260505220023 25 254 4.8 4.8 0.00 0.76 0.43 36 1004.6
20260505215023 25 224 1.6 3.2 0.00 0.76 0.43 36 1004.6
20260505214022 25 220 3.2 4.8 0.00 0.76 0.43 37 1004.9
20260505213026 25 222 4.8 6.4 0.00 0.76 0.43 39 1004.9
20260505212022 25 235 6.4 260.7 0.00 0.76 0.43 39 1005.0
20260505211022 24 280 4.8 6.4 0.00 0.76 0.43 38 1005.1
20260505210022 24 220 4.8 259.1 0.00 0.76 0.43 37 1005.2
20260505205026 24 230 4.8 259.1 0.00 0.76 0.43 37 1005.2
20260505204026 24 209 6.4 6.4 0.00 0.76 0.43 39 1005.2
20260505203022 24 245 6.4 6.4 0.00 0.76 0.43 40 1005.2
20260505202042 24 244 6.4 260.7 0.00 0.76 0.43 40 1005.4
20260505201024 23 233 6.4 6.4 0.00 0.76 0.43 43 1005.4
20260505200042 23 247 4.8 4.8 0.00 0.76 0.43 47 1005.6
20260505195022 23 252 6.4 6.4 0.00 0.76 0.43 47 1005.8
20260505194026 23 198 8.0 259.1 0.00 0.76 0.43 46 1005.7
20260505193022 22 252 3.2 3.2 0.00 0.76 0.43 51 1005.5
20260505192021 22 3 0.0 1.6 0.00 0.76 0.43 52 1005.8
20260505191021 22 269 1.6 1.6 0.00 0.76 0.43 52 1006.1
20260505190021 22 175 0.0 1.6 0.00 0.76 0.43 51 1006.1
20260505185027 22 134 1.6 1.6 0.00 0.76 0.43 52 1006.3
20260505184025 22 26 1.6 1.6 0.00 0.76 0.43 53 1006.4
20260505183042 22 234 1.6 1.6 0.00 0.76 0.43 53 1006.6
20260505182021 22 179 1.6 1.6 0.00 0.76 0.43 54 1006.7
20260505181021 21 158 1.6 3.2 0.00 0.76 0.43 55 1006.8
20260505180027 21 236 3.2 3.2 0.00 0.76 0.43 56 1006.8
20260505175026 21 0.0 0.0 0.00 0.76 0.43 57 1006.9
20260505174023 21 13 0.0 0.0 0.00 0.76 0.43 57
20260505173021 20 248 0.0 0.0 0.00 0.76 0.43 57
20260505172021 20 233 0.0 0.0 0.00 0.76 0.43 57 1007.0
20260505171021 21 242 1.6 1.6 0.00 0.76 0.43 58 1007.1
20260505170029 21 203 0.0 0.0 0.00 0.76 0.43 58 1006.9
20260505165021 21 293 0.0 0.0 0.00 0.76 0.43 58 1007.0
20260505163024 20 0.0 0.0 0.00 0.76 0.43 57 1007.0
20260505162041 20 241 0.0 0.0 0.00 0.76 0.43 57 1007.1
20260505161020 19 239 1.6 1.6 0.00 0.76 0.43 57 1007.1
20260505153020 18 218 0.0 1.6 0.00 0.76 0.43 55 1006.9
20260505152020 18 0.0 0.0 0.00 0.76 0.43 54 1006.9
20260505151020 18 256 0.0 0.0 0.00 0.76 0.43 54 1006.9
20260505125022 17 0.0 0.0 0.00 0.76 0.43 56 1005.8
20260505124020 17 0.0 0.0 0.00 0.76 0.43 56 1005.7
20260505123021 17 0.0 0.0 0.08 0.76 0.43 56 1005.6
20260505122019 17 293 0.0 0.0 0.08 0.76 0.43 55 1005.7
20260505121019 17 248 0.0 0.0 0.08 0.76 0.43 56 1005.5
20260505120020 16 165 0.0 1.6 0.08 0.76 0.43 56 1005.4
20260505115039 16 187 0.0 1.6 0.08 0.76 0.43 55 1005.2
20260505114019 16 219 1.6 1.6 0.08 0.76 0.43 55 1005.3
20260505113039 16 196 1.6 1.6 0.00 0.71 0.36 55 1005.6
20260505112020 16 182 1.6 1.6 0.00 0.71 0.36 55 1005.5
20260505111041 16 196 1.6 1.6 0.08 0.71 0.36 55 1005.5
20260505102018 16 149 1.6 3.2 0.08 0.71 0.36 55 1006.3
20260505101021 16 199 3.2 3.2 0.00 0.64 0.28 55 1006.7
20260505100039 16 195 3.2 3.2 0.00 0.64 0.28 55 1006.5
20260505095031 16 176 3.2 4.8 0.00 0.64 0.28 55 1006.5
20260505094027 17 193 3.2 4.8 0.00 0.64 0.28 55 1006.4
20260505093045 17 208 3.2 3.2 0.00 0.64 0.28 56 1006.6
20260505092024 17 185 3.2 3.2 0.08 0.64 0.28 56 1006.7
20260505091021 17 164 3.2 3.2 0.08 0.64 0.28 56 1006.8
20260505090019 17 197 3.2 3.2 0.08 0.64 0.28 56 1006.7
20260505085021 17 118 3.2 3.2 0.15 0.64 0.28 56 1007.0
20260505084027 17 143 3.2 3.2 0.15 0.64 0.28 56 1007.3
20260505083034 17 160 1.6 1.6 0.20 0.64 0.28 56 1007.9
20260505082040 17 71 1.6 1.6 0.15 0.56 0.20 56 1008.2
20260505081030 17 167 1.6 1.6 0.15 0.56 0.20 56 1008.5
20260505080051 17 134 1.6 1.6 0.20 0.56 0.20 57 1008.8
20260505075025 17 187 0.0 1.6 0.15 0.48 0.15 57 1008.7
20260505074030 17 111 1.6 1.6 0.15 0.48 0.15 57 1009.0
20260505073036 18 186 0.0 1.6 0.15 0.43 0.08 57 1009.1
20260505072027 18 257 0.0 1.6 0.15 0.43 0.08 57 1009.0
20260505071043 18 0.0 0.0 0.15 0.43 0.08 57 1008.9
20260505070021 18 0.0 0.0 0.08 0.36 0.00 57 1008.8
20260505065057 18 0.0 0.0 0.08 0.36 0.36 57 1008.9
20260505064026 18 0.0 0.0 0.15 0.36 0.36 57 1008.8
20260505063025 18 0.0 0.0 0.08 0.28 0.28 57 1008.9
20260505062030 18 177 0.0 0.0 0.08 0.28 0.28 57 1008.9
20260505061029 18 195 0.0 0.0 0.08 0.28 0.28 57 1009.0
20260505060026 18 186 0.0 1.6 0.08 0.28 0.28 57 1008.8
20260505055026 18 189 0.0 1.6 0.08 0.28 0.28 58
20260505054022 18 163 0.0 1.6 0.08 0.20 0.20 58 1008.7
20260505053100 18 77 0.0 1.6 0.08 0.20 0.20 58
20260505052111 18 0.0 0.0 0.08 0.20 0.20 58
20260505051021 18 0.0 0.0 0.08 0.20 0.20 58 1008.5